Location: Saint-Palais-sur-Mer
(45.6429°N, 1.0859°W)
Time: 08:54:01
(UTC+02:00)

TIGRISAT - Pass Details

Date: 02 May 2024
Orbit: 594 x 672 km, 97.7° (Epoch: 21 May)

Event Time Altitude Azimuth Distance (km) Brightness Sun altitude
Rises 05:10:44 0° 140° (SE) 2,884 ? -15.4°
Reaches altitude 10° 05:13:07 10° 130° (SE) 1,971 ? -15.1°
Maximum altitude 05:16:52 31° 68° (ENE) 1,082 ? -14.6°
Drops below altitude 10° 05:20:35 10° 7° (N) 1,952 ? -14.1°
Sets 05:22:55 0° 357° (N) 2,853 ? -13.8°
